This is the latest recevied weather packets stored in our database for station/object W4NRG-1. If no packets are shown the sender has not sent any weather packets the latest 10 day(s).
| Time | Temp. | Humidity | Pressure | Rain* | Wind** | Luminosity | Snow |
|---|---|---|---|---|---|---|---|
| 1778103443 | 21.11° C | 76% | 1010.1 hPa | 0 mm | - | - | - |
| 1778103140 | 21.11° C | 76% | 1010.1 hPa | 0 mm | - | - | - |
| 1778102837 | 21.67° C | 75% | 1010 hPa | 0 mm | - | - | - |
| 1778102532 | 21.11° C | 76% | 1009.9 hPa | 0 mm | - | - | - |
| 1778102228 | 21.11° C | 76% | 1010 hPa | 0 mm | - | - | - |
| 1778101924 | 21.67° C | 75% | 1010.2 hPa | 0 mm | - | - | - |
| 1778101622 | 21.11° C | 76% | 1010.1 hPa | 0 mm | - | - | - |
| 1778101318 | 21.11° C | 76% | 1010.1 hPa | 0 mm | - | - | - |
| 1778101016 | 21.11° C | 75% | 1009.8 hPa | 0 mm | - | - | - |
| 1778100710 | 21.11° C | 77% | 1009.9 hPa | 0 mm | - | - | - |
| 1778100408 | 20.56° C | 77% | 1009.9 hPa | 0 mm | - | - | - |
| 1778100105 | 20.56° C | 78% | 1009.8 hPa | 0 mm | - | - | - |
| 1778099803 | 20.56° C | 78% | 1009.9 hPa | 0 mm | - | - | - |
| 1778099499 | 20° C | 78% | 1009.7 hPa | 0 mm | - | - | - |
| 1778099198 | 20° C | 78% | 1009.9 hPa | 0 mm | - | - | - |
| 1778098893 | 20° C | 79% | 1009.9 hPa | 0 mm | - | - | - |
| 1778098591 | 20.56° C | 79% | 1009.9 hPa | 0 mm | - | - | - |
| 1778098287 | 20.56° C | 78% | 1009.8 hPa | 0 mm | - | - | - |
| 1778097984 | 20.56° C | 79% | 1010.1 hPa | 0 mm | - | - | - |
| 1778097680 | 20° C | 80% | 1009.7 hPa | 0 mm | - | - | - |
| 1778097377 | 20° C | 80% | 1009.8 hPa | 0 mm | - | - | - |
| 1778097074 | 20° C | 79% | 1010.1 hPa | 0 mm | - | - | - |
| 1778096771 | 20° C | 80% | 1010.6 hPa | 0 mm | - | - | - |
| 1778096467 | 20° C | 79% | 1010.5 hPa | 0 mm | - | - | - |
| 1778096165 | 20° C | 79% | 1010.4 hPa | 0 mm | - | - | - |
* Rain latest hour (hover to see other rain measurements)
** Current wind speed in m/s (hover to see current wind gust speed)